[[{"header":{"parameterUnit":"m.s-1","parameterCategory":1,"la1":30.2991,"la2":30.254,"lo1":-89.0895,"lo2":-89.0444,"dy":0.0017,"dx":0.0017,"nx":28,"ny":28,"refTime":"2024-02-07T03:00:00:Z","depth":0,"parameterNumber":2,"parameterNumberName":"U-component_of_WINDS"},"data":[0,0,0,0,0,0,0,0,0,0,0,0,0,0,0,0,0,0,0,0,0,0,0,0,0,0,0,0,0,0,0,0,0,0,0,0,0,0,0,0,0,0,0,0,0,0,0,0,0,0,0,0,0,0,0,0,0,0,-0.1056,-0.1056,0,-0.1092,-0.1092,-0.1093,-0.1111,-0.1111,-0.1111,-0.1111,-0.1149,-0.115,-0.1151,0,0,0,0,0,0,0,0,0,0,0,0,0,-0.1002,-0.1003,-0.1056,-0.1056,-0.1057,-0.1092,-0.1092,-0.1093,-0.1111,-0.1111,-0.1111,-0.1111,-0.1148,-0.115,-0.1151,0,0,0,0,0,0,0,0,0,0,0,0,0,-0.1031,-0.1004,-0.1056,-0.107,-0.1071,-0.1092,-0.1092,-0.1093,-0.1111,-0.1111,-0.1111,-0.1111,-0.1148,-0.115,-0.1151,-0.116,0,0,-0.1156,-0.1156,0,0,0,0,0,0,0,0,-0.1029,-0.1033,-0.1067,-0.1069,-0.1071,-0.1097,-0.1088,-0.1116,-0.1111,-0.1096,-0.1111,-0.1111,-0.1132,-0.1134,-0.1141,-0.1162,-0.1164,-0.1156,-0.1157,-0.1157,-0.1158,0,0,0,0,0,0,0,-0.1027,-0.1031,-0.107,-0.1068,-0.107,-0.1074,-0.1078,-0.1093,-0.1113,-0.1097,-0.1099,-0.1103,-0.1133,-0.114,-0.1142,-0.1164,-0.1156,-0.1157,-0.1158,-0.1159,-0.1193,-0.1193,0,0,0,0,0,0,-0.1023,-0.103,-0.1069,-0.1071,-0.1049,-0.1075,-0.108,-0.1088,-0.1113,-0.1117,-0.1102,-0.1103,-0.1137,-0.1141,-0.1144,-0.1156,-0.1157,-0.1159,-0.116,-0.1193,-0.1193,-0.1193,0,0,0,0,0,0,-0.1022,-0.1026,-0.1067,-0.1051,-0.1056,-0.1076,-0.1086,-0.1089,-0.1096,-0.1117,-0.1121,-0.1106,-0.1137,-0.1142,-0.1156,-0.1157,-0.116,-0.1161,-0.1193,-0.1193,-0.1193,-0.118,0,0,0,0,0,0,-0.102,-0.1026,-0.1029,-0.1051,-0.1057,-0.1079,-0.1086,-0.109,-0.1099,-0.11,-0.1122,-0.1125,-0.1138,-0.1153,-0.1157,-0.1159,-0.1162,-0.1193,-0.1193,-0.1193,-0.118,-0.1179,-0.1178,0,0,0,0,0,-0.1018,-0.1025,-0.103,-0.1034,-0.1062,-0.1079,-0.1083,-0.1097,-0.1099,-0.1103,-0.1116,-0.1124,-0.1156,-0.1155,-0.1159,-0.1162,-0.1193,-0.1193,-0.1193,-0.118,-0.1179,-0.1178,0,0,0,0,0,0,-0.1004,-0.1028,-0.1034,-0.1047,-0.1061,-0.1082,-0.1087,-0.1095,-0.1109,-0.111,-0.1126,-0.1131,-0.1144,-0.1154,-0.1152,-0.1171,-0.1176,-0.1176,-0.1164,-0.1163,-0.1162,-0.116,-0.1163,0,0,0,0,0,-0.1002,-0.1014,-0.1034,-0.1044,-0.105,-0.1068,-0.1075,-0.1085,-0.11,-0.1106,-0.112,-0.1134,-0.1148,-0.1156,-0.1169,-0.1181,-0.1186,-0.1185,-0.1184,-0.1184,-0.1184,-0.119,-0.119,-0.1193,-0.1193,-0.1193,0,0,-0.0999,-0.1014,-0.102,-0.1041,-0.1053,-0.1064,-0.1072,-0.1084,-0.1093,-0.1108,-0.1122,-0.1132,-0.115,-0.1162,-0.1169,-0.1172,-0.1184,-0.1184,-0.1183,-0.1184,-0.119,-0.119,-0.119,-0.1193,-0.1193,-0.1193,0,0,-0.0999,-0.1012,-0.1021,-0.1032,-0.1049,-0.106,-0.1062,-0.1082,-0.109,-0.1104,-0.1115,-0.1125,-0.1148,-0.1159,-0.1168,-0.117,-0.1179,-0.1174,-0.117,-0.1176,-0.1176,-0.1176,-0.1176,-0.1176,-0.1175,-0.1175,-0.1175,0,-0.0994,-0.1011,-0.1025,-0.1036,-0.1044,-0.1057,-0.1067,-0.1077,-0.1098,-0.1104,-0.1106,-0.1134,-0.1146,-0.1161,-0.1162,-0.1169,-0.1171,-0.1172,-0.1175,-0.1175,-0.1175,-0.1175,-0.1175,-0.1174,-0.1174,-0.1174,-0.1174,0,-0.1003,-0.1014,-0.102,-0.1039,-0.1048,-0.1058,-0.1073,-0.1081,-0.1089,-0.11,-0.1113,-0.1129,-0.1145,-0.1149,-0.1157,-0.1165,-0.1166,-0.1171,-0.1176,-0.1173,-0.1174,-0.1175,-0.1173,-0.1173,-0.1174,-0.1174,0,0,-0.0996,-0.1021,-0.1023,-0.1031,-0.1051,-0.106,-0.107,-0.1085,-0.1091,-0.1105,-0.1114,-0.1131,-0.1136,-0.1146,-0.1155,-0.1161,-0.1161,-0.1165,-0.1166,-0.1163,-0.1169,-0.1165,-0.1165,-0.1166,-0.1166,-0.1166,-0.1168,0,-0.0999,-0.1018,-0.103,-0.1044,-0.1054,-0.1066,-0.1075,-0.1087,-0.1097,-0.1107,-0.1119,-0.1131,-0.1136,-0.1142,-0.1147,-0.116,-0.1162,-0.116,-0.1174,-0.1174,-0.1169,-0.1166,-0.1162,-0.1162,-0.1168,-0.1168,-0.1168,0,-0.1005,-0.1017,-0.1032,-0.1049,-0.1054,-0.1061,-0.1076,-0.1085,-0.1099,-0.1106,-0.1116,-0.1126,-0.1136,-0.114,-0.1154,-0.1152,-0.1159,-0.1166,-0.1166,-0.1168,-0.1171,-0.1167,-0.1163,-0.1163,-0.1169,-0.1169,-0.1169,0,-0.0998,-0.1019,-0.103,-0.1036,-0.1057,-0.1061,-0.107,-0.1084,-0.1092,-0.1104,-0.1109,-0.1123,-0.113,-0.114,-0.1153,-0.1154,-0.1166,-0.1171,-0.1172,-0.1172,-0.1174,-0.1174,-0.1171,-0.1178,-0.1178,-0.1178,-0.1178,0,-0.1,-0.1009,-0.1027,-0.1034,-0.1043,-0.1056,-0.1066,-0.1075,-0.1087,-0.1096,-0.1107,-0.1115,-0.1131,-0.1141,-0.1151,-0.1161,-0.1164,-0.117,-0.1172,-0.1169,-0.1168,-0.1174,-0.1174,-0.1179,-0.1178,-0.1178,-0.1178,0,-0.0995,-0.1007,-0.102,-0.1037,-0.1042,-0.1048,-0.1063,-0.107,-0.108,-0.109,-0.1094,-0.1109,-0.1121,-0.1134,-0.1151,-0.1158,-0.1167,-0.1171,-0.1162,-0.1164,-0.1164,-0.1164,-0.1164,-0.1165,-0.1172,-0.1172,-0.1172,0,-0.0996,-0.1002,-0.102,-0.1026,-0.1034,-0.1044,-0.1052,-0.1065,-0.1072,-0.1088,-0.1093,-0.1105,-0.1116,-0.1134,-0.1147,-0.116,-0.1164,-0.1163,-0.1166,-0.1161,-0.1163,-0.1163,-0.1163,-0.1162,-0.1162,-0.1162,-0.1162,0,-0.0995,-0.1,-0.1011,-0.1023,-0.1032,-0.1042,-0.1053,-0.1058,-0.1073,-0.108,-0.1092,-0.11,-0.1117,-0.1129,-0.1142,-0.1151,-0.1159,-0.1161,-0.1162,-0.1158,-0.1153,-0.1155,-0.116,-0.1161,-0.1161,-0.1161,-0.1161,-0.1161,-0.0993,-0.0999,-0.1011,-0.1022,-0.1032,-0.1041,-0.1048,-0.1058,-0.1068,-0.1082,-0.1089,-0.11,-0.1113,-0.1132,-0.114,-0.1149,-0.1152,-0.1153,-0.1154,-0.1154,-0.1153,-0.1151,-0.1152,-0.1152,-0.1152,-0.1152,-0.1152,0,-0.0992,-0.1001,-0.1011,-0.1025,-0.1033,-0.1039,-0.1051,-0.1058,-0.1067,-0.1078,-0.1088,-0.1101,-0.1113,-0.1126,-0.1138,-0.1142,-0.1146,-0.1145,-0.1145,-0.1147,-0.115,-0.1148,-0.1142,-0.1142,-0.1142,-0.1142,-0.1142,-0.1142,-0.0993,-0.1003,-0.101,-0.1024,-0.1033,-0.1044,-0.105,-0.1059,-0.1067,-0.1081,-0.109,-0.1098,-0.111,-0.1123,-0.1133,-0.1136,-0.114,-0.1138,-0.1143,-0.1146,-0.1147,-0.1147,-0.1145,-0.1139,-0.1139,-0.1138,-0.1138,-0.1138]},{"header":{"parameterUnit":"m.s-1","parameterCategory":1,"la1":30.2991,"la2":30.254,"lo1":-89.0895,"lo2":-89.0444,"dy":0.0017,"dx":0.0017,"nx":28,"ny":28,"refTime":"2024-02-07T03:00:00:Z","depth":0,"parameterNumber":3,"parameterNumberName":"V-component_of_WINDS"},"data":[0,0,0,0,0,0,0,0,0,0,0,0,0,0,0,0,0,0,0,0,0,0,0,0,0,0,0,0,0,0,0,0,0,0,0,0,0,0,0,0,0,0,0,0,0,0,0,0,0,0,0,0,0,0,0,0,0,0,-3.3277,-3.3278,0,-3.3344,-3.3345,-3.3345,-3.3331,-3.333,-3.3329,-3.3328,-3.3392,-3.3395,-3.3398,0,0,0,0,0,0,0,0,0,0,0,0,0,-3.3134,-3.3137,-3.3277,-3.3278,-3.3279,-3.3344,-3.3345,-3.3345,-3.3332,-3.333,-3.3329,-3.3327,-3.3391,-3.3394,-3.3398,0,0,0,0,0,0,0,0,0,0,0,0,0,-3.3198,-3.3138,-3.3277,-3.328,-3.3281,-3.3343,-3.3345,-3.3346,-3.3332,-3.333,-3.3328,-3.3327,-3.339,-3.3394,-3.3398,-3.3461,0,0,-3.3411,-3.3413,0,0,0,0,0,0,0,0,-3.3194,-3.3203,-3.3278,-3.328,-3.3281,-3.3327,-3.3318,-3.3384,-3.3332,-3.3312,-3.3328,-3.3326,-3.3372,-3.3377,-3.3394,-3.3464,-3.3467,-3.3412,-3.3414,-3.3416,-3.3417,0,0,0,0,0,0,0,-3.319,-3.32,-3.3303,-3.3279,-3.3281,-3.3277,-3.3284,-3.333,-3.3351,-3.3314,-3.3313,-3.3321,-3.3372,-3.339,-3.3395,-3.3468,-3.3412,-3.3415,-3.3418,-3.342,-3.3594,-3.3596,0,0,0,0,0,0,-3.3185,-3.3197,-3.3301,-3.3305,-3.3232,-3.3281,-3.3289,-3.3314,-3.3351,-3.3355,-3.3323,-3.3321,-3.3383,-3.339,-3.3397,-3.3474,-3.3416,-3.342,-3.3423,-3.3592,-3.3595,-3.3597,0,0,0,0,0,0,-3.3182,-3.3195,-3.3298,-3.3251,-3.3264,-3.3285,-3.3314,-3.3316,-3.3334,-3.3358,-3.3361,-3.3337,-3.3382,-3.3391,-3.3446,-3.3476,-3.3422,-3.3426,-3.359,-3.3593,-3.3596,-3.3628,0,0,0,0,0,0,-3.3178,-3.3194,-3.3218,-3.3252,-3.3266,-3.3347,-3.3316,-3.3319,-3.3342,-3.334,-3.3372,-3.3376,-3.3381,-3.344,-3.345,-3.3481,-3.3429,-3.3587,-3.3591,-3.3595,-3.3624,-3.3631,-3.3638,0,0,0,0,0,-3.3173,-3.3223,-3.322,-3.3232,-3.3298,-3.3349,-3.3357,-3.3364,-3.3345,-3.3369,-3.3385,-3.3375,-3.3471,-3.3445,-3.3457,-3.349,-3.3585,-3.359,-3.3595,-3.3621,-3.363,-3.3638,0,0,0,0,0,0,-3.3191,-3.3228,-3.3224,-3.3287,-3.3315,-3.3346,-3.3377,-3.3373,-3.3406,-3.3402,-3.3408,-3.3415,-3.3471,-3.3486,-3.3456,-3.3553,-3.3525,-3.3533,-3.3541,-3.355,-3.3557,-3.3552,-3.3433,0,0,0,0,0,-3.3203,-3.3242,-3.3271,-3.3324,-3.3338,-3.3356,-3.3378,-3.3381,-3.341,-3.3421,-3.344,-3.3468,-3.3504,-3.3528,-3.3563,-3.3626,-3.3633,-3.3654,-3.3661,-3.3667,-3.3673,-3.3708,-3.3718,-3.3612,-3.3612,-3.3612,0,0,-3.3226,-3.3251,-3.3275,-3.3328,-3.335,-3.339,-3.3366,-3.3408,-3.3438,-3.3427,-3.3481,-3.3496,-3.3526,-3.3586,-3.3613,-3.36,-3.3704,-3.3673,-3.3677,-3.368,-3.3714,-3.3724,-3.3733,-3.3616,-3.3615,-3.3614,0,0,-3.329,-3.3313,-3.336,-3.3383,-3.3418,-3.3429,-3.3441,-3.3473,-3.3483,-3.3537,-3.3531,-3.3565,-3.3628,-3.3651,-3.367,-3.3744,-3.3737,-3.3755,-3.3791,-3.3826,-3.3834,-3.3841,-3.3868,-3.3877,-3.3761,-3.3762,-3.3762,0,-3.3314,-3.3375,-3.3384,-3.3428,-3.3452,-3.3446,-3.3493,-3.3515,-3.3559,-3.3575,-3.356,-3.3639,-3.366,-3.3725,-3.3743,-3.3759,-3.3772,-3.3751,-3.3832,-3.384,-3.3847,-3.3872,-3.3882,-3.3764,-3.3763,-3.3763,-3.3763,0,-3.3404,-3.3447,-3.348,-3.3525,-3.3552,-3.3597,-3.3612,-3.3638,-3.364,-3.3652,-3.3708,-3.3732,-3.3772,-3.3788,-3.3789,-3.3854,-3.3845,-3.3831,-3.3803,-3.3859,-3.3883,-3.3893,-3.3767,-3.3766,-3.3765,-3.3765,0,0,-3.3479,-3.353,-3.3542,-3.3563,-3.3601,-3.3634,-3.3679,-3.372,-3.3743,-3.3773,-3.3811,-3.3865,-3.3854,-3.3876,-3.3879,-3.391,-3.3967,-3.3892,-3.3893,-3.3905,-3.4041,-3.4051,-3.4062,-3.3963,-3.3965,-3.3966,-3.4038,0,-3.3547,-3.3628,-3.3638,-3.371,-3.3749,-3.3745,-3.3785,-3.3812,-3.3826,-3.386,-3.3875,-3.3913,-3.3895,-3.3909,-3.3938,-3.3954,-3.3994,-3.3949,-3.3997,-3.3999,-3.3989,-3.4074,-3.4085,-3.4151,-3.4048,-3.4049,-3.405,0,-3.3635,-3.3671,-3.3748,-3.3782,-3.3799,-3.3835,-3.3874,-3.3907,-3.3938,-3.3946,-3.3972,-3.3972,-3.4018,-3.399,-3.4053,-3.4022,-3.4042,-3.4053,-3.4056,-3.406,-3.4028,-3.4081,-3.4173,-3.4183,-3.4065,-3.4064,-3.4063,0,-3.3683,-3.375,-3.3805,-3.3822,-3.3864,-3.3889,-3.3908,-3.3937,-3.3962,-3.3996,-3.4012,-3.405,-3.407,-3.41,-3.411,-3.4088,-3.4173,-3.4145,-3.418,-3.418,-3.4197,-3.4196,-3.4293,-3.4211,-3.4211,-3.421,-3.421,0,-3.3757,-3.3804,-3.3827,-3.386,-3.3913,-3.3924,-3.3975,-3.3992,-3.4019,-3.4055,-3.4054,-3.4087,-3.4099,-3.4134,-3.4142,-3.4194,-3.4203,-3.421,-3.4211,-3.421,-3.4209,-3.4223,-3.4219,-3.4213,-3.4212,-3.4212,-3.4212,0,-3.3818,-3.3836,-3.3895,-3.3931,-3.3941,-3.3978,-3.4008,-3.404,-3.4054,-3.41,-3.4111,-3.4133,-3.4175,-3.4188,-3.4238,-3.4243,-3.4304,-3.4301,-3.4293,-3.4294,-3.4328,-3.4325,-3.4438,-3.4453,-3.436,-3.4361,-3.4362,0,-3.3864,-3.39,-3.3941,-3.3966,-3.3986,-3.4026,-3.4052,-3.4064,-3.4091,-3.413,-3.4158,-3.42,-3.4234,-3.4301,-3.432,-3.4359,-3.4357,-3.4394,-3.4362,-3.436,-3.4357,-3.4355,-3.4359,-3.4399,-3.44,-3.4401,-3.4402,0,-3.3944,-3.3951,-3.3989,-3.4031,-3.4062,-3.4095,-3.4126,-3.4147,-3.4163,-3.4193,-3.4237,-3.4264,-3.4317,-3.4358,-3.4398,-3.4415,-3.4411,-3.4412,-3.4422,-3.4421,-3.4415,-3.4419,-3.431,-3.4409,-3.4408,-3.4408,-3.4407,-3.4407,-3.3998,-3.4031,-3.4065,-3.4108,-3.4134,-3.4164,-3.4196,-3.4215,-3.4253,-3.4298,-3.4302,-3.435,-3.4381,-3.4434,-3.4454,-3.449,-3.448,-3.4494,-3.4498,-3.4501,-3.4504,-3.441,-3.4498,-3.4497,-3.4497,-3.4497,-3.4497,0,-3.4078,-3.41,-3.414,-3.4185,-3.4219,-3.4215,-3.425,-3.4278,-3.432,-3.4351,-3.4385,-3.4436,-3.4477,-3.45,-3.4541,-3.4566,-3.4565,-3.4576,-3.4574,-3.4578,-3.4512,-3.4499,-3.4576,-3.4576,-3.4576,-3.4576,-3.4576,-3.4576,-3.4123,-3.4179,-3.4191,-3.4259,-3.428,-3.4328,-3.4349,-3.4377,-3.4401,-3.4459,-3.4494,-3.4509,-3.4537,-3.458,-3.4617,-3.4622,-3.4637,-3.465,-3.4654,-3.4591,-3.4583,-3.4575,-3.4563,-3.4653,-3.4653,-3.4718,-3.4719,-3.4719]}]]